TimeCDT,TemperatureF,Dew PointF,Humidity,Sea Level PressureIn,VisibilityMPH,Wind Direction,Wind SpeedMPH,Gust SpeedMPH,PrecipitationIn,Events,Conditions,WindDirDegrees,DateUTC
12:53 AM,48.9,35.1,59,29.72,10.0,SE,19.6,27.6,N/A,,Clear,140,2013-04-06 05:53:00
1:53 AM,46.9,36.0,66,29.70,10.0,SE,15.0,-,N/A,,Clear,140,2013-04-06 06:53:00
2:53 AM,46.9,37.0,68,29.66,10.0,SE,17.3,-,N/A,,Scattered Clouds,140,2013-04-06 07:53:00
3:53 AM,48.9,39.0,69,29.64,10.0,SSE,17.3,-,N/A,,Scattered Clouds,150,2013-04-06 08:53:00
4:53 AM,50.0,39.9,68,29.61,10.0,SSE,15.0,-,N/A,,Mostly Cloudy,150,2013-04-06 09:53:00
5:53 AM,50.0,39.9,68,29.60,10.0,SSE,13.8,-,N/A,,Mostly Cloudy,150,2013-04-06 10:53:00
6:53 AM,48.9,39.9,71,29.57,10.0,SSE,13.8,-,N/A,,Clear,160,2013-04-06 11:53:00
7:53 AM,48.9,39.9,71,29.56,10.0,South,12.7,-,N/A,,Mostly Cloudy,170,2013-04-06 12:53:00
8:53 AM,53.1,42.1,66,29.55,10.0,South,11.5,-,N/A,,Scattered Clouds,180,2013-04-06 13:53:00
9:53 AM,55.9,43.0,62,29.53,10.0,SW,20.7,27.6,N/A,,Clear,220,2013-04-06 14:53:00
10:53 AM,52.0,37.0,57,29.55,10.0,WSW,19.6,-,N/A,,Partly Cloudy,250,2013-04-06 15:53:00
11:53 AM,50.0,37.0,61,29.59,10.0,West,20.7,28.8,N/A,,Overcast,270,2013-04-06 16:53:00
12:53 PM,46.0,39.9,79,29.56,6.0,NW,8.1,-,0.01,Rain,Light Rain,310,2013-04-06 17:53:00
1:48 PM,46.4,42.8,87,29.56,7.0,West,17.3,-,0.01,,Mostly Cloudy,270,2013-04-06 18:48:00
1:53 PM,46.9,43.0,86,29.58,6.0,West,17.3,-,0.01,,Mostly Cloudy,280,2013-04-06 18:53:00
2:04 PM,46.4,42.8,87,29.57,6.0,West,16.1,-,N/A,,Overcast,280,2013-04-06 19:04:00
2:22 PM,50.0,44.6,82,29.57,8.0,WNW,16.1,-,N/A,,Overcast,290,2013-04-06 19:22:00
2:53 PM,48.9,43.0,80,29.60,9.0,NW,13.8,24.2,N/A,,Overcast,320,2013-04-06 19:53:00
3:28 PM,51.8,42.8,71,29.60,10.0,NW,15.0,20.7,N/A,,Overcast,310,2013-04-06 20:28:00
3:53 PM,54.0,43.0,66,29.62,10.0,NW,16.1,-,N/A,,Overcast,310,2013-04-06 20:53:00
4:10 PM,55.4,42.8,63,29.60,10.0,NW,11.5,-,N/A,,Scattered Clouds,320,2013-04-06 21:10:00
4:53 PM,57.0,42.1,57,29.63,10.0,NW,13.8,-,N/A,,Clear,310,2013-04-06 21:53:00
5:53 PM,57.9,41.0,53,29.65,10.0,NNW,17.3,-,N/A,,Clear,330,2013-04-06 22:53:00
6:53 PM,55.9,39.9,55,29.68,10.0,North,12.7,-,N/A,,Clear,350,2013-04-06 23:53:00
7:53 PM,50.0,39.0,66,29.73,10.0,North,11.5,-,N/A,,Clear,350,2013-04-07 00:53:00
8:53 PM,45.0,37.0,74,29.75,8.0,North,10.4,-,N/A,,Clear,360,2013-04-07 01:53:00
9:53 PM,42.1,36.0,79,29.78,7.0,North,12.7,-,N/A,,Clear,360,2013-04-07 02:53:00
10:53 PM,37.9,33.1,83,29.81,7.0,NNW,5.8,-,N/A,,Clear,340,2013-04-07 03:53:00
11:53 PM,33.1,30.0,89,29.83,5.0,North,3.5,-,N/A,,Clear,350,2013-04-07 04:53:00